Location: Mountain View
(37.3861°N, 122.0839°W)
Time: 15:15:01
(UTC-07:00)

Tiangong - Pass Details

Date: 27 September 2021
Orbit: 382 x 385 km, 41.5° (Epoch: 19 October)

Event Time Altitude Azimuth Distance (km) Brightness Sun altitude
Exits shadow 05:16:20 43° 125° (SE) 546 2.0 -21.4°
Drops below altitude 10° 05:18:57 10° 78° (ENE) 1,394 5.1 -20.9°
Sets 05:21:04 0° 72° (ENE) 2,248 6.6 -20.5°
